Location: Launay
(47.2429°N, 1.5727°E)
Time: 21:58:24
(UTC+00:00)

ATLAS 3B R/B - Pass Details

Date: 19 May 2025
Orbit: 935 x 1258 km, 63.8° (Epoch: 18 June)

Event Time Altitude Azimuth Distance (km) Brightness Sun altitude
Exits shadow 23:17:16 30° 211° (SSW) 1,984 3.7 -22.4°
Maximum altitude 23:21:25 83° 127° (SE) 1,224 2.9 -22.5°
Drops below altitude 10° 23:29:16 10° 40° (NE) 3,233 5.8 -22.6°
Sets 23:32:07 0° 40° (NE) 4,215 6.5 -22.6°
